User: anonymous   Login
Location: Gro�sch�nbrunn
(49.5760°N, 11.8868°E)
Time: 04:35:57
(UTC+00:00)
Language:

Abrixas rocket - Orbit

View from above orbital plane
View from above orbital plane
View from above satellite
View from above satellite

Ground track
Ground track

The orbit data is extracted from the following two-line orbital elements,

1 25723U 99022C   20333.08003381  .00066173  00000-0  30836-3 0  9991
2 25723  48.4086 181.0933 0001771 146.2851 213.8218 15.82609032203814
Epoch (UTC): 28 November 2020 01:55:14
Eccentricity: 0.0001771
inclination: 48.4086°
perigee height: 322 km
apogee height: 324 km
right ascension of ascending node: 181.0933°
argument of perigee: 146.2851°
revolutions per day: 15.82609032
mean anomaly at epoch: 213.8218°
orbit number at epoch: 20381

The dashed part of the orbit path shows where the satellite is in the earth's shadow,  

DLR